Location: Kellogg
(38.0159°N, 90.0546°W)
Time: 22:38:41
(UTC+00:00)

Vanguard 1 - Pass Details

Date: 21 September 2024
Orbit: 648 x 3825 km, 34.3° (Epoch: 12 October)

Event Time Altitude Azimuth Distance (km) Brightness Sun altitude
Rises 12:17:53 0° 186° (S) 7,940 14.7 5.1°
Reaches altitude 10° 12:27:22 10° 168° (SSE) 6,847 14.6 7.0°
Maximum altitude 12:38:03 16° 139° (SE) 5,944 14.9 9.1°
Drops below altitude 10° 12:47:09 10° 110° (ESE) 5,809 16.3 10.8°
Sets 12:53:39 0° 90° (E) 6,227 16.1 12.1°
